Location: Fort Worth, Tx
(32.7431°N, 97.3695°W)
Time: 10:01:48
(UTC-04:00)

A-11 Canister half - Pass Details

Date: 18 August 2024
Orbit: 1524 x 1684 km, 47.3° (Epoch: 13 September)

Event Time Altitude Azimuth Distance (km) Brightness Sun altitude
Rises 03:08:01 0° 293° (WNW) 4,927 11.8 -43.6°
Reaches altitude 10° 03:11:38 10° 302° (WNW) 3,946 11.3 -43.4°
Maximum altitude 03:20:45 36° 6° (N) 2,458 10.3 -43.0°
Drops below altitude 10° 03:29:47 10° 70° (ENE) 3,915 11.4 -42.4°
Sets 03:33:21 0° 79° (E) 4,884 12.0 -42.2°
